Time,TemperatureF,DewpointF,PressureIn,WindDirection,WindDirectionDegrees,WindSpeedMPH,WindSpeedGustMPH,Humidity,HourlyPrecipIn,Conditions,Clouds,dailyrainin,SoftwareType,DateUTC
2015-08-01 00:03:00,67.0,65.0,-100.00,SSW,210,0.0,1.0,92,-99.99,,,-99.99,,2015-08-01 05:03:00,
2015-08-01 00:23:00,66.0,64.0,-100.00,SW,215,0.0,0.0,93,-99.99,,,-99.99,,2015-08-01 05:23:00,
2015-08-01 00:33:00,66.0,64.0,-100.00,NW,315,0.0,0.0,93,-99.99,,,-99.99,,2015-08-01 05:33:00,
2015-08-01 00:43:00,65.0,63.0,-100.00,WNW,285,0.0,1.0,94,-99.99,,,-99.99,,2015-08-01 05:43:00,
2015-08-01 00:53:00,65.0,63.0,-100.00,SW,230,0.0,0.0,94,-99.99,,,-99.99,,2015-08-01 05:53:00,
2015-08-01 01:03:00,65.0,63.0,-100.00,SW,225,0.0,0.0,94,-99.99,,,-99.99,,2015-08-01 06:03:00,
2015-08-01 01:13:00,64.0,63.0,-100.00,SE,140,0.0,0.0,94,-99.99,,,-99.99,,2015-08-01 06:13:00,
2015-08-01 01:24:00,64.0,63.0,-100.00,NW,305,0.0,0.0,94,-99.99,,,-99.99,,2015-08-01 06:24:00,
2015-08-01 01:33:00,64.0,62.0,-100.00,SW,230,0.0,0.0,94,-99.99,,,-99.99,,2015-08-01 06:33:00,
2015-08-01 01:43:00,64.0,63.0,-100.00,NNW,345,1.0,1.0,94,-99.99,,,-99.99,,2015-08-01 06:43:00,
2015-08-01 01:54:00,64.0,63.0,-100.00,North,350,0.0,1.0,94,-99.99,,,-99.99,,2015-08-01 06:54:00,
2015-08-01 02:03:00,64.0,62.0,-100.00,WSW,255,0.0,0.0,94,-99.99,,,-99.99,,2015-08-01 07:03:00,
2015-08-01 02:12:00,64.0,62.0,-100.00,North,0,1.0,2.0,94,-99.99,,,-99.99,,2015-08-01 07:12:00,
2015-08-01 02:23:00,64.0,62.0,-100.00,North,355,1.0,2.0,94,-99.99,,,-99.99,,2015-08-01 07:23:00,
2015-08-01 02:33:00,63.0,62.0,-100.00,WNW,295,0.0,0.0,94,-99.99,,,-99.99,,2015-08-01 07:33:00,
2015-08-01 02:43:00,63.0,62.0,-100.00,SSE,165,1.0,2.0,94,-99.99,,,-99.99,,2015-08-01 07:43:00,
2015-08-01 02:53:00,63.0,62.0,-100.00,SE,125,0.0,2.0,95,-99.99,,,-99.99,,2015-08-01 07:53:00,
2015-08-01 03:03:00,63.0,62.0,-100.00,SE,130,0.0,0.0,95,-99.99,,,-99.99,,2015-08-01 08:03:00,
2015-08-01 03:12:00,63.0,61.0,-100.00,SSW,200,0.0,1.0,95,-99.99,,,-99.99,,2015-08-01 08:12:00,
2015-08-01 03:23:00,63.0,61.0,-100.00,SSW,210,0.0,1.0,95,-99.99,,,-99.99,,2015-08-01 08:23:00,
2015-08-01 03:33:00,63.0,62.0,-100.00,NNW,335,2.0,4.0,95,-99.99,,,-99.99,,2015-08-01 08:33:00,
2015-08-01 03:43:00,63.0,62.0,-100.00,NE,35,0.0,1.0,95,-99.99,,,-99.99,,2015-08-01 08:43:00,
2015-08-01 03:53:00,62.0,61.0,-100.00,SE,135,0.0,0.0,95,-99.99,,,-99.99,,2015-08-01 08:53:00,
2015-08-01 04:03:00,62.0,61.0,-100.00,ESE,105,0.0,0.0,95,-99.99,,,-99.99,,2015-08-01 09:03:00,
2015-08-01 04:12:00,62.0,60.0,-100.00,SSE,165,1.0,1.0,95,-99.99,,,-99.99,,2015-08-01 09:12:00,
2015-08-01 04:23:00,62.0,60.0,-100.00,SE,135,1.0,1.0,95,-99.99,,,-99.99,,2015-08-01 09:23:00,
2015-08-01 04:33:00,62.0,61.0,-100.00,SSE,165,0.0,2.0,95,-99.99,,,-99.99,,2015-08-01 09:33:00,
2015-08-01 04:43:00,62.0,61.0,-100.00,SE,145,0.0,0.0,95,-99.99,,,-99.99,,2015-08-01 09:43:00,
2015-08-01 04:56:00,62.0,60.0,-100.00,SW,225,1.0,2.0,95,-99.99,,,-99.99,,2015-08-01 09:56:00,
2015-08-01 05:03:00,62.0,60.0,-100.00,SW,225,1.0,2.0,95,-99.99,,,-99.99,,2015-08-01 10:03:00,
2015-08-01 05:12:00,62.0,60.0,-100.00,South,190,0.0,1.0,95,-99.99,,,-99.99,,2015-08-01 10:12:00,
2015-08-01 05:23:00,61.0,60.0,-100.00,SSW,195,0.0,1.0,95,-99.99,,,-99.99,,2015-08-01 10:23:00,
2015-08-01 05:33:00,61.0,60.0,-100.00,SW,230,0.0,0.0,95,-99.99,,,-99.99,,2015-08-01 10:33:00,
2015-08-01 05:44:00,61.0,60.0,-100.00,WNW,290,0.0,0.0,95,-99.99,,,-99.99,,2015-08-01 10:44:00,
2015-08-01 05:54:00,61.0,60.0,-100.00,WSW,245,0.0,1.0,95,-99.99,,,-99.99,,2015-08-01 10:54:00,
2015-08-01 06:03:00,61.0,59.0,-100.00,WSW,255,0.0,0.0,95,-99.99,,,-99.99,,2015-08-01 11:03:00,
2015-08-01 06:13:00,61.0,59.0,-100.00,WNW,300,0.0,1.0,95,-99.99,,,-99.99,,2015-08-01 11:13:00,
2015-08-01 06:24:00,61.0,59.0,-100.00,SE,145,1.0,2.0,95,-99.99,,,-99.99,,2015-08-01 11:24:00,
2015-08-01 06:34:00,60.0,59.0,-100.00,ENE,70,0.0,4.0,95,-99.99,,,-99.99,,2015-08-01 11:34:00,
2015-08-01 06:43:00,61.0,59.0,-100.00,SW,215,0.0,1.0,95,-99.99,,,-99.99,,2015-08-01 11:43:00,
2015-08-01 06:54:00,61.0,59.0,-100.00,NW,310,0.0,0.0,95,-99.99,,,-99.99,,2015-08-01 11:54:00,
2015-08-01 07:04:00,61.0,59.0,-100.00,NW,315,0.0,0.0,95,-99.99,,,-99.99,,2015-08-01 12:04:00,
2015-08-01 07:13:00,61.0,59.0,-100.00,NNW,340,0.0,0.0,95,-99.99,,,-99.99,,2015-08-01 12:13:00,
2015-08-01 07:24:00,61.0,60.0,-100.00,South,170,0.0,-999.0,95,-99.99,,,-99.99,,2015-08-01 12:24:00,
2015-08-01 07:33:00,62.0,60.0,-100.00,SE,145,0.0,0.0,95,-99.99,,,-99.99,,2015-08-01 12:33:00,
2015-08-01 07:44:00,62.0,61.0,-100.00,East,100,0.0,0.0,95,-99.99,,,-99.99,,2015-08-01 12:44:00,
2015-08-01 07:54:00,63.0,62.0,-100.00,SSE,160,0.0,1.0,95,-99.99,,,-99.99,,2015-08-01 12:54:00,
2015-08-01 08:03:00,64.0,62.0,-100.00,ESE,115,0.0,1.0,95,-99.99,,,-99.99,,2015-08-01 13:03:00,
2015-08-01 08:13:00,64.0,63.0,-100.00,South,175,1.0,2.0,95,-99.99,,,-99.99,,2015-08-01 13:13:00,